TimeHST,TemperatureF,Dew PointF,Humidity,Sea Level PressureIn,VisibilityMPH,Wind Direction,Wind SpeedMPH,Gust SpeedMPH,PrecipitationIn,Events,Conditions,WindDirDegrees,DateUTC
12:57 AM,75.2,66.9,75,29.98,10.0,East,8.1,-,N/A,,Scattered Clouds,90,2012-10-21 10:57:00
1:57 AM,75.2,66.9,75,29.96,10.0,East,9.2,-,N/A,,Mostly Cloudy,90,2012-10-21 11:57:00
2:57 AM,75.2,66.9,75,29.95,10.0,ENE,8.1,-,N/A,,Scattered Clouds,70,2012-10-21 12:57:00
3:57 AM,75.2,66.9,75,29.95,10.0,East,9.2,18.4,N/A,,Overcast,80,2012-10-21 13:57:00
4:17 AM,75.2,66.2,73,29.96,6.2,East,9.2,-,N/A,,Overcast,80,2012-10-21 14:17:00
4:31 AM,75.2,66.2,73,29.96,6.2,East,6.9,19.6,N/A,,Overcast,90,2012-10-21 14:31:00
4:57 AM,75.2,66.9,75,29.95,10.0,East,5.8,-,N/A,,Mostly Cloudy,80,2012-10-21 14:57:00
5:57 AM,75.2,66.9,75,29.95,10.0,ESE,9.2,-,N/A,,Mostly Cloudy,110,2012-10-21 15:57:00
6:57 AM,77.0,66.0,69,29.97,10.0,Variable,3.5,-,N/A,,Mostly Cloudy,0,2012-10-21 16:57:00
7:57 AM,78.8,66.0,65,29.99,10.0,East,8.1,-,N/A,,Mostly Cloudy,80,2012-10-21 17:57:00
8:07 AM,78.8,66.2,65,30.00,6.2,ESE,5.8,-,N/A,,Mostly Cloudy,110,2012-10-21 18:07:00
8:57 AM,80.6,66.9,63,29.99,10.0,Variable,6.9,17.3,N/A,,Partly Cloudy,0,2012-10-21 18:57:00
9:57 AM,80.6,66.9,63,29.99,10.0,East,11.5,16.1,N/A,,Mostly Cloudy,80,2012-10-21 19:57:00
10:06 AM,80.6,66.2,61,30.01,6.2,East,8.1,18.4,N/A,,Scattered Clouds,80,2012-10-21 20:06:00
10:27 AM,80.6,66.2,61,30.01,6.2,East,11.5,18.4,N/A,,Mostly Cloudy,90,2012-10-21 20:27:00
10:54 AM,82.4,66.2,58,30.01,6.2,East,10.4,16.1,N/A,,Partly Cloudy,80,2012-10-21 20:54:00
10:57 AM,82.4,66.9,59,29.99,10.0,East,10.4,16.1,N/A,,Partly Cloudy,80,2012-10-21 20:57:00
11:57 AM,82.4,66.9,59,29.97,10.0,East,9.2,21.9,N/A,,Mostly Cloudy,90,2012-10-21 21:57:00
12:30 PM,82.4,68.0,62,29.97,6.2,East,11.5,21.9,N/A,,Scattered Clouds,100,2012-10-21 22:30:00
12:57 PM,84.2,68.0,58,29.95,10.0,East,13.8,19.6,N/A,,Scattered Clouds,80,2012-10-21 22:57:00
1:47 PM,84.2,68.0,58,29.95,6.2,East,11.5,19.6,N/A,,Mostly Cloudy,90,2012-10-21 23:47:00
1:57 PM,84.2,68.0,58,29.93,10.0,East,11.5,20.7,N/A,,Mostly Cloudy,80,2012-10-21 23:57:00
2:57 PM,84.2,66.9,56,29.93,10.0,ENE,10.4,19.6,N/A,,Scattered Clouds,70,2012-10-22 00:57:00
3:57 PM,80.6,66.9,63,29.93,10.0,ENE,10.4,17.3,N/A,,Clear,60,2012-10-22 01:57:00
4:57 PM,80.6,66.9,63,29.94,10.0,ENE,13.8,23.0,N/A,,Clear,70,2012-10-22 02:57:00
5:57 PM,80.6,66.0,61,29.95,10.0,ENE,13.8,19.6,N/A,,Clear,70,2012-10-22 03:57:00
6:57 PM,78.8,66.0,65,29.97,10.0,East,12.7,24.2,N/A,,Clear,80,2012-10-22 04:57:00
7:57 PM,78.8,66.9,67,29.99,10.0,East,9.2,-,N/A,,Partly Cloudy,80,2012-10-22 05:57:00
8:57 PM,78.8,66.0,65,30.00,10.0,ENE,9.2,16.1,N/A,,Scattered Clouds,70,2012-10-22 06:57:00
9:24 PM,78.8,66.2,65,30.02,6.2,ENE,8.1,-,N/A,,Overcast,70,2012-10-22 07:24:00
9:34 PM,78.8,66.2,65,30.01,6.2,ENE,9.2,16.1,N/A,,Mostly Cloudy,70,2012-10-22 07:34:00
9:57 PM,77.0,66.0,69,30.00,10.0,East,8.1,16.1,N/A,,Partly Cloudy,80,2012-10-22 07:57:00
10:57 PM,77.0,66.0,69,30.00,10.0,East,6.9,-,N/A,,Mostly Cloudy,90,2012-10-22 08:57:00
11:57 PM,77.0,66.9,71,29.99,10.0,East,5.8,-,N/A,,Clear,80,2012-10-22 09:57:00